Tracking 31027 objects as of 19-Jul-2025
HD Live streaming from Space Station
objects crossing your sky now

METEOR 2-17 DEB

Track METEOR 2-17 DEB now!
10-day predictions


NORAD ID: 29302
Int'l Code: 1988-005R
Perigee: 863.8 km
Apogee: 885.6 km
Inclination: 82.6 °
Period: 102.3 minutes
Semi major axis: 7245 km
RCS: 0.0088 m2 (small)
Launch date: January 30, 1988
Source: Commonwealth of Independent States (former USSR) (CIS)
Launch site: PLESETSK MISSILE AND SPACE COMPLEX (PKMTR)

Note: This is SATELLITE DEBRIS
Your satellite tracking list
Your tracking list is empty




NASA's NSSDC Master Catalog

Two Line Element Set (TLE):
1 29302U 88005R   25195.15944001  .00002129  00000-0  12515-2 0  9993
2 29302  82.5532 132.9724 0015041 154.3870 205.8052 14.07618794574173
Source of the keplerian elements: AFSPC